Simultaneous Nadir Overpasses (SNOs) Predictions

Prediction of SNOs between AQUA and GOES-15 Satellite Orbit:

Table of predicted SNOs for the next 14.0 days since TLE Epoch: 8/17/2024
Index Date Time (AQUA) AQUA Lat,Lon GOES-15 Lat,Lon Distance(km) Time Diff (sec)
1 08/18/2024 22:04:56 0.24, 62.59 0.42, 61.72 98.33 80
2 08/19/2024 10:25:03 -1.29, 57.72 -0.42, 61.68 450.46 80
3 08/21/2024 10:07:54 -0.35, 61.91 -0.42, 61.65 29.93 80
4 08/23/2024 22:10:40 0.50, 61.29 0.42, 61.65 41.74 80
5 08/25/2024 21:53:27 -0.42, 65.49 0.42, 61.64 438.85 80
6 08/26/2024 10:13:32 -0.65, 60.64 -0.41, 61.61 110.51 80
7 08/28/2024 09:56:17 0.29, 64.85 -0.41, 61.59 370.73 80
8 08/28/2024 22:16:13 0.73, 60.03 0.40, 61.61 180.60 80
9 08/30/2024 21:58:56 -0.20, 64.25 0.40, 61.61 300.86 80
